星链-33629 (STARLINK-33629)

导读

STARLINK-33629是美国SpaceX星链项目的低轨通信卫星,属于Starlink V1.0卫星平台,2025年3月26日于美国发射,目前在轨运行。该卫星运行于近地轨道,轨道高度约475公里,倾角53.159°,周期约94分钟。作为星链星座的组成部分,它旨在为全球,尤其偏远地区提供高速低延迟宽带互联网服务,助力缩小数字鸿沟,进一步完善全球卫星互联网基础设施覆盖,提升星座整体通信能力与网络稳定性。

Basic Information
目录编号:
63388
目录名称:
STARLINK-33629
国际标识:
2025-063AB
轨道中心:
EARTH
卫星名称:
星链-33629
卫星全名:
星链-33629 (STARLINK-33629)
卫星状态:
在轨 (已飞行445 天)
发射日期:
2025-03-26 UTC
国别 :
美国 (US)
星等 :
--
Orbit Information
数据来源 国际轨道数据 AOE轨道数据
星历时间 2026-06-14T01:18:25+0800
14小时前
查看轨道信息
2026-06-12T07:00:00+0800
2天前
查看轨道信息
半长轴 6840.882km 6840.809km
偏心率 0.0001389 0.0001048
轨道倾角 53.160° 53.158°
近地点辐角 91.414° 76.060°
升交点赤经 323.466° 331.713°
平近点角 268.702° 261.358°
近地点 461.794km 461.955km
远地点 463.696km 463.389km
周期 93.849分钟 93.847分钟
每日圈数 15.34386 15.344108
Detailed Information
固有亮度:
5
最大亮度:
2.5
卫星平台:
Starlink V1.0
覆盖范围:
全球
运营商:
太空探索技术公司
运营商所在国:
美国
制造商(研发单位):
太空探索技术公司
制造商所在国:
美国
使用方式:
暂无
Satellite Introduction
Starlink 计划是 SpaceX 推出的全球卫星互联网项目,通过发射低轨道卫星,为全球尤其是偏远地区提供高速、低延迟的互联网服务。自 2019 年起,Starlink 已部署数千颗卫星,旨在缩小全球数字鸿沟,推动互联网普及。该项目还为军事、航空等行业提供通信支持,带来广泛经济效益。
2D Orbit Map
3D Orbit Map
Orbit Altitude Analysis Chart
Orbit Inclination Analysis Chart
Orbit Comprehensive Analysis Chart
View Comprehensive Chart